Hurghada, Egypt

6:28 AM EET on February 24, 2018 (GMT +0200)
Hurghada

Weather History for HEGN - January, 2013

Change the Weather History Date:

Tuesday, January 15, 2013

  Actual Average Record
Temperature  
Mean Temperature 62 °F -  
Max Temperature 77 °F 69 °F 78 °F (2014)
Min Temperature 48 °F 52 °F 48 °F (2006)
Degree Days  
Heating Degree Days 2    
Growing Degree Days 12 (Base 50)    
Moisture  
Dew Point 37 °F    
Average Humidity 41    
Maximum Humidity 51    
Minimum Humidity 31    
Precipitation  
Precipitation 0.00 in - - ()
Sea Level Pressure  
Sea Level Pressure 30.15 in    
Wind  
Wind Speed 8 mph ()    
Max Wind Speed 14 mph    
Max Gust Speed -    
Visibility 6.0 miles    
Events      
Averages and records for this station are not official NWS values.
T = Trace of Precipitation, MM = Missing Value Source: Averaged Metar Reports

Daily Weather History Graph

Daily Weather History Graph

Search for Another Location

Airport or City:

Trip Planner

Search our weather history database for the weather conditions in past years. The results will help you decide how hot, cold, wet, or windy it might be!

Date:

Astronomy

Jan. 15, 2013 Rise Set
Actual Time 6:36 AM EET 5:13 PM EET
Civil Twilight 6:10 AM EET 5:38 PM EET
Nautical Twilight 5:42 AM EET 6:06 PM EET
Astronomical Twilight 5:14 AM EET 6:35 PM EET
Moon 8:56 AM EET (1/15) 9:12 PM EET (1/15)
Length of Visible Light 11h 27m
Length of Day
10h 37m
Waxing Crescent, 16% of the Moon is Illuminated
Jan 15
Waxing Crescent
Jan 19
First Quarter
Jan 27
Full
Feb 3
Last Quarter
Feb 10
New

Hourly Weather History & Observations

Time (EET) Temp. Dew Point Humidity Pressure Visibility Wind Dir Wind Speed Gust Speed Precip Events Conditions
12:00 AM 57.2 °F 37.4 °F 48% 30.15 in - NW 10.4 mph - N/A   Clear
1:00 AM 55.4 °F 37.4 °F 51% 30.18 in - NW 13.8 mph - N/A   Clear
2:00 AM 55 °F 37 °F 39% 30.17 in 6 mi WNW 11.5 mph - -  
2:00 AM 55.4 °F 37.4 °F 51% 30.15 in - WNW 11.5 mph - N/A   Clear
3:00 AM 55.4 °F 37.4 °F 51% 30.15 in - NNW 11.5 mph - N/A   Clear
4:00 AM 51.8 °F 33.8 °F 50% 30.15 in - WNW 12.7 mph - N/A   Clear
5:00 AM 51.8 °F 32.0 °F 47% 30.15 in - WNW 12.7 mph - N/A   Clear
6:00 AM 50.0 °F 32.0 °F 50% 30.18 in - WNW 9.2 mph - N/A   Clear
7:00 AM 50.0 °F 30.2 °F 47% 30.18 in - WNW 8.1 mph - N/A   Clear
8:00 AM 54 °F 32 °F 31% 30.20 in 6 mi WNW 8.1 mph - -  
8:00 AM 53.6 °F 32.0 °F 44% 30.18 in - WNW 8.1 mph - N/A   Clear
9:00 AM 60.8 °F 33.8 °F 36% 30.21 in - NW 11.5 mph - N/A   Clear
10:00 AM 64.4 °F 39.2 °F 40% 30.18 in - NNW 12.7 mph - N/A   Clear
11:00 AM 68.0 °F 39.2 °F 35% 30.18 in - NNW 10.4 mph - N/A   Clear
12:00 PM 69.8 °F 42.8 °F 38% 30.12 in - NW 6.9 mph - N/A   Clear
1:00 PM 77.0 °F 46.4 °F 34% 30.12 in - NNE 3.5 mph - N/A   Clear
2:00 PM 77.0 °F 44.6 °F 32% 30.09 in - NNE 4.6 mph - N/A   Clear
3:00 PM 77.0 °F 44.6 °F 32% 30.12 in - NNE 3.5 mph - N/A   Clear
4:00 PM 73.4 °F 44.6 °F 36% 30.12 in - North 3.5 mph - N/A   Clear
5:00 PM 69.8 °F 42.8 °F 38% 30.12 in - NNW 4.6 mph - N/A   Clear
6:00 PM 64.4 °F 41.0 °F 42% 30.12 in - NNW 3.5 mph - N/A   Clear
7:00 PM 60.8 °F 37.4 °F 42% 30.12 in - NW 3.5 mph - N/A   Clear
8:00 PM 57.2 °F 32.0 °F 38% 30.12 in - WNW 3.5 mph - N/A   Clear
9:00 PM 55.4 °F 32.0 °F 41% 30.12 in - WNW 2.3 mph - N/A   Clear
10:00 PM 53.6 °F 30.2 °F 41% 30.12 in - NW 3.5 mph - N/A   Clear
11:00 PM 53.6 °F 28.4 °F 38% 30.12 in - WNW 9.2 mph - N/A   Clear